STARLINK-38315, 100506

Orbit data source: Space-Track

STARLINK-38315, 100506 is a payload satellite owned by SpaceX/Seattle (US) in LEO that was launched on Wed, 26 Aug 2026 UTC launched from the Air Force Western Test Range (AFWTR). Payload-class satellites include a variety of spacecraft equipped with specific instruments for various scientific and technological missions. These include communications satellites like Starlink; space stations such as the ISS; scientific satellites like the Hubble; Earth observation satellites from companies like Planet Labs, Umbra, and HawkEye 360; GPS; miniature CubeSats for education and research; and military/defense satellites.

Loading next visibility...
Identifier
100506, 2026-197E
Orbit
LEO
Country
Flag of USUS
Related business
Manufacturer
SpaceX/Seattle
Mission
Operational spacecraft
Bus & Motor
STARLINK V2MO, Unknown motor
Mass
575 kg wet, ~530 kg dry
Launch date (UTC)
2026-08-26 (2 weeks ago)
Launch vehicle
Unknown
Launch site
Air Force Western Test Range (AFWTR)
Object type
Payload
Rocket body
Debris
Shape & HBR
BOX + PAN, 17.7 m
Radar Cross Section
RCS unknown

Expand to show TLE details & history
Last TLE update: 11 hours ago

TLE from 11 hours ago
0 STARLINK-38315
1 A0506U 26197E   26251.29250884  .00209062  00000-0  99024-3 0  9996
2 A0506  69.9989 156.3818 0003415 268.8866  91.1945 15.82250818  2069
Epoch: 2026-09-08T07:01Z
TLE epoch observation values (Epoch: 2026-09-08T07:01:12.763Z)
Latitude
-0.00002°
Longitude
63.7176°
Altitude
326.639 km
Speed
7.713 km/s
True Right ascension
10h 25m 31s
True Declination
0° 00' 00"
Sunlit
Object was in daylight at epoch
Visualization orbit readout
Latitude
Unknown
Longitude
Unknown
Altitude
Unknown
Speed
Unknown
Apparent Right ascension
Unknown
Apparent Declination
Unknown
Sunlit
N/A
Visualization observer readout
Local Sidereal Time
10:24:19
Azimuth
Unknown
Elevation
Unknown
Doppler factor
Unknown
Orbital elements
Apogee altitude
324.237 km
Perigee altitude
319.661 km
Semi-major axis
6,700.086 km
Eccentricity
0.00034
Inclination
69.9989°
RAAN
156.3818°
Arg. of periapsis
268.8866°
True anomaly
91.23362°
Mean anomaly
91.1945°
Eccentric anomaly
91.21406°
Mean motion
3.95752 °/min
Orbital period
90.97 mins
BSTAR
0.00099024
Loading maneuver chart data...
Computing Atmospheric mass density...
Loading historical data...
Loading historical data...
Loading historical data...
Loading historical data...
Loading historical data...
Loading historical data...
Loading historical data...

Documentation

Showing up to 5 results
|